User: anonymous   Login
Location: Arrodets-la-Barthe
(43.0306°N, 0.2829°E)
Time: 07:57:22
(UTC+00:00)
Language:

NOAA 19 - Orbit

View from above orbital plane
View from above orbital plane
View from above satellite
View from above satellite

Ground track
Ground track

The orbit data is extracted from the following two-line orbital elements,

1 33591U 09005A   24104.86346505  .00000279  00000-0  17381-3 0  9994
2 33591  99.0536 159.9664 0014864 112.9481 247.3260 14.12966647782281
Epoch (UTC): 13 April 2024 20:43:23
Eccentricity: 0.0014864
inclination: 99.0536°
perigee height: 838 km
apogee height: 860 km
right ascension of ascending node: 159.9664°
argument of perigee: 112.9481°
revolutions per day: 14.12966647
mean anomaly at epoch: 247.3260°
orbit number at epoch: 78228

The dashed part of the orbit path shows where the satellite is in the earth's shadow,  

DLR